KA8OAD-1 Weather Reports


Display with metric or nautical units.
time (UTC)temp
F
wind
direction
speed
MPH
gust
MPH
rain 1hr
in
rain 24hr
in
rain mn
in
humidity
%
barometer
mb
20260902161005 89 255 1.0 7.0 0.00 0.00 0.00 66 1016.3
20260902160006 87 223 2.0 6.0 0.00 0.00 0.00 69 1016.3
20260902155504 87 229 1.0 5.0 0.00 0.00 0.00 69 1016.4
20260902154504 86 232 1.0 7.0 0.00 0.00 0.00 70 1016.5
20260902154004 86 229 1.0 5.0 0.00 0.00 0.00 70 1016.6
20260902153504 86 229 1.0 5.0 0.00 0.00 0.00 70 1016.5
20260902153004 86 229 2.0 5.0 0.00 0.00 0.00 70 1016.5
20260902152504 86 229 3.0 5.0 0.00 0.00 0.00 69 1016.5
20260902152004 85 225 2.0 5.0 0.00 0.00 0.00 71 1016.5
20260902151503 85 217 1.0 3.0 0.00 0.00 0.00 72 1016.5
20260902151004 85 227 1.0 4.0 0.00 0.00 0.00 72 1016.5
20260902150503 84 242 2.0 6.0 0.00 0.00 0.00 73 1016.5
20260902150004 84 236 2.0 6.0 0.00 0.00 0.00 74 1016.4
20260902145004 83 226 2.0 6.0 0.00 0.00 0.00 77 1016.4
20260902144504 82 230 2.0 6.0 0.00 0.00 0.00 77 1016.4
20260902144004 82 233 2.0 5.0 0.00 0.00 0.00 78 1016.2
20260902143504 81 233 2.0 5.0 0.00 0.00 0.00 80 1016.2
20260902143004 81 237 2.0 5.0 0.00 0.00 0.00 82 1016.2
20260902142005 80 260 2.0 4.0 0.00 0.00 0.00 84 1016.1
20260902141503 79 265 1.0 4.0 0.00 0.00 0.00 85 1016.0
20260902140504 78 315 1.0 3.0 0.00 0.00 0.00 87 1016.1
20260902135504 78 242 2.0 5.0 0.00 0.00 0.00 88 1016.1
20260902135005 77 238 2.0 5.0 0.00 0.00 0.00 89 1016.1
20260902134504 77 235 2.0 5.0 0.00 0.00 0.00 90 1016.2
20260902134004 76 237 2.0 5.0 0.00 0.00 0.00 90 1016.1
20260902133504 76 235 2.0 4.0 0.00 0.00 0.00 91 1016.1
20260902133004 76 232 1.0 4.0 0.00 0.00 0.00 92 1016.0
20260902132504 75 233 1.0 4.0 0.00 0.00 0.00 92 1016.2
20260902132004 75 231 1.0 4.0 0.00 0.00 0.00 92 1016.2
20260902131504 75 226 0.0 3.0 0.00 0.00 0.00 92 1016.2
20260902130005 75 0 0.0 0.0 0.00 0.00 0.00 92 1016.2
20260902125503 74 0 0.0 0.0 0.00 0.00 0.00 92 1016.2
20260902125004 74 0 0.0 0.0 0.00 0.00 0.00 93 1016.0
20260902124504 74 0 0.0 0.0 0.00 0.00 0.00 92 1016.0
20260902124005 74 0 0.0 0.0 0.00 0.00 0.00 92 1016.0
20260902123504 74 0 0.0 0.0 0.00 0.00 0.00 92 1016.1
20260902123005 74 0 0.0 0.0 0.00 0.00 0.00 92 1016.1
20260902121504 73 0 0.0 0.0 0.00 0.00 0.00 92 1015.9
20260902121004 73 0 0.0 0.0 0.00 0.00 0.00 92 1016.0
20260902120504 72 0 0.0 0.0 0.00 0.00 0.00 92 1016.0
20260902120005 72 0 0.0 0.0 0.00 0.00 0.00 91 1015.8
20260902115005 72 0 0.0 0.0 0.00 0.00 0.00 91 1015.5
20260902114504 72 0 0.0 0.0 0.00 0.00 0.00 91 1015.5
20260902113503 72 0 0.0 0.0 0.00 0.00 0.00 91 1015.4
20260902113004 72 0 0.0 0.0 0.00 0.00 0.00 91 1015.4
20260902112504 72 0 0.0 0.0 0.00 0.00 0.00 91 1015.4
20260902112005 72 0 0.0 0.0 0.00 0.00 0.00 91 1015.5
20260902111503 73 0 0.0 0.0 0.00 0.00 0.00 91 1015.3
20260902111004 73 0 0.0 0.0 0.00 0.00 0.00 91 1015.3
20260902110504 73 0 0.0 0.0 0.00 0.00 0.00 91 1015.4
20260902110007 73 0 0.0 0.0 0.00 0.00 0.00 91 1015.3
20260902105004 73 0 0.0 0.0 0.00 0.00 0.00 91 1015.2
20260902104504 73 0 0.0 0.0 0.00 0.00 0.00 91 1015.3
20260902104004 73 0 0.0 0.0 0.00 0.00 0.00 91 1015.3
20260902103504 73 0 0.0 0.0 0.00 0.00 0.00 91 1015.3
20260902103004 73 0 0.0 0.0 0.00 0.00 0.00 91 1015.1
20260902102504 73 0 0.0 0.0 0.00 0.00 0.00 91 1015.2
20260902102004 73 0 0.0 0.0 0.00 0.00 0.00 91 1015.2
20260902101505 73 0 0.0 0.0 0.00 0.00 0.00 91 1015.0
20260902101005 73 0 0.0 0.0 0.00 0.00 0.00 91 1015.0
20260902100005 73 0 0.0 0.0 0.00 0.00 0.00 91 1015.0
20260902095504 73 0 0.0 0.0 0.00 0.00 0.00 91 1015.2
20260902095004 73 0 0.0 0.0 0.00 0.00 0.00 91 1015.2
20260902094503 73 0 0.0 0.0 0.00 0.00 0.00 91 1015.2
20260902094005 73 0 0.0 0.0 0.00 0.00 0.00 91 1015.3
20260902093503 73 0 0.0 0.0 0.00 0.00 0.00 91 1015.3
20260902093004 74 0 0.0 0.0 0.00 0.00 0.00 91 1015.3
20260902092504 74 0 0.0 0.0 0.00 0.00 0.00 91 1015.4
20260902092004 74 0 0.0 0.0 0.00 0.00 0.00 91 1015.5
20260902091004 74 0 0.0 0.0 0.00 0.00 0.00 91 1015.5
20260902090005 74 0 0.0 0.0 0.00 0.00 0.00 91 1015.5
20260902085504 74 0 0.0 0.0 0.00 0.00 0.00 90 1015.5
20260902085005 74 0 0.0 0.0 0.00 0.00 0.00 90 1015.4
20260902084504 74 0 0.0 0.0 0.00 0.00 0.00 90 1015.4
20260902084004 74 0 0.0 0.0 0.00 0.00 0.00 90 1015.4
20260902083005 74 0 0.0 0.0 0.00 0.00 0.00 90 1015.3
20260902082503 74 0 0.0 0.0 0.00 0.00 0.00 90 1015.3
20260902082004 74 0 0.0 0.0 0.00 0.00 0.00 90 1015.2
20260902081504 74 0 0.0 0.0 0.00 0.00 0.00 90 1015.3
20260902080503 74 0 0.0 0.0 0.00 0.00 0.00 90 1015.3
20260902080005 74 0 0.0 0.0 0.00 0.00 0.00 90 1015.3
20260902075503 74 0 0.0 0.0 0.00 0.00 0.00 90 1015.2
20260902075004 74 0 0.0 0.0 0.00 0.00 0.00 90 1015.2
20260902074504 74 0 0.0 0.0 0.00 0.00 0.00 90 1015.1
20260902074004 74 0 0.0 0.0 0.00 0.00 0.00 90 1015.2
20260902073504 74 0 0.0 0.0 0.00 0.00 0.00 90 1015.2
20260902073004 74 0 0.0 0.0 0.00 0.00 0.00 90 1015.3
20260902072504 74 0 0.0 0.0 0.00 0.00 0.00 90 1015.3
20260902072004 74 0 0.0 0.0 0.00 0.00 0.00 90 1015.2
20260902071504 74 0 0.0 0.0 0.00 0.00 0.00 90 1015.2
20260902070006 74 0 0.0 0.0 0.00 0.00 0.00 90 1015.3
20260902065504 74 0 0.0 0.0 0.00 0.00 0.00 90 1015.4
20260902064504 74 0 0.0 0.0 0.00 0.00 0.00 89 1015.5
20260902064005 74 0 0.0 0.0 0.00 0.00 0.00 88 1015.6
20260902063503 74 0 0.0 0.0 0.00 0.00 0.00 88 1015.7
20260902063005 74 0 0.0 0.0 0.00 0.00 0.00 88 1015.7
20260902062005 74 0 0.0 0.0 0.00 0.00 0.00 88 1015.6
20260902060504 74 0 0.0 0.0 0.00 0.00 0.00 88 1015.6
20260902060004 74 0 0.0 0.0 0.00 0.00 0.00 88 1015.6
20260902055504 74 0 0.0 0.0 0.00 0.00 0.00 88 1015.6
20260902055005 74 0 0.0 0.0 0.00 0.00 0.00 88 1015.6
20260902054504 75 0 0.0 0.0 0.00 0.00 0.00 88 1015.5
20260902053503 75 0 0.0 0.0 0.00 0.00 0.00 87 1015.6
20260902052004 75 0 0.0 0.0 0.00 0.00 0.00 87 1015.6
20260902051504 75 0 0.0 0.0 0.00 0.00 0.00 87 1015.6
20260902051004 75 0 0.0 0.0 0.00 0.00 0.00 87 1015.5
20260902050505 75 0 0.0 0.0 0.00 0.00 0.00 87 1015.5
20260902050007 75 0 0.0 0.0 0.00 0.00 0.00 87 1015.4
20260902045503 75 0 0.0 0.0 0.00 0.00 0.00 87 1015.4
20260902045004 75 0 0.0 0.0 0.00 0.00 0.00 87 1015.3
20260902044005 76 0 0.0 0.0 0.00 0.00 0.00 87 1015.1
20260902043503 76 0 0.0 0.0 0.00 0.00 0.00 87 1015.2
20260902043005 76 0 0.0 0.0 0.00 0.00 0.00 87 1015.2
20260902042503 76 0 0.0 0.0 0.00 0.00 0.00 86 1015.2
20260902042004 76 0 0.0 0.0 0.00 0.00 0.00 86 1015.2
20260902041504 76 0 0.0 0.0 0.00 0.00 0.00 86 1015.2
20260902041004 76 0 0.0 0.0 0.00 0.00 0.00 86 1015.2
20260902040504 76 0 0.0 0.0 0.00 0.00 0.00 86 1015.2
20260902040008 76 0 0.0 0.0 0.00 0.00 0.00 85 1015.2
20260902035005 76 0 0.0 0.0 0.00 0.00 0.00 85 1015.3
20260902034504 76 0 0.0 0.0 0.00 0.00 0.00 85 1015.2
20260902034005 76 0 0.0 0.0 0.00 0.00 0.00 84 1015.1
20260902033504 76 0 0.0 0.0 0.00 0.00 0.00 84 1015.2
20260902033004 76 0 0.0 0.0 0.00 0.00 0.00 84 1015.2
20260902032504 76 0 0.0 0.0 0.00 0.00 0.00 84 1015.2
20260902032004 77 0 0.0 0.0 0.00 0.00 0.00 84 1015.2
20260902031005 77 0 0.0 0.0 0.00 0.00 0.00 84 1015.2
20260902030503 77 0 0.0 0.0 0.00 0.00 0.00 84 1015.2
20260902030005 77 0 0.0 0.0 0.00 0.00 0.00 84 1015.2
20260902025503 77 0 0.0 0.0 0.00 0.00 0.00 84 1015.2
20260902025005 77 0 0.0 0.0 0.00 0.00 0.00 83 1015.2
20260902024504 77 0 0.0 0.0 0.00 0.00 0.00 83 1015.2
20260902024004 78 0 0.0 0.0 0.00 0.00 0.00 83 1015.1
20260902023504 78 0 0.0 0.0 0.00 0.00 0.00 82 1015.0
20260902023004 78 0 0.0 0.0 0.00 0.00 0.00 82 1015.0
20260902022504 78 0 0.0 0.0 0.00 0.00 0.00 82 1014.8
20260902022005 78 0 0.0 0.0 0.00 0.00 0.00 81 1014.8
20260902021503 78 0 0.0 0.0 0.00 0.00 0.00 81 1014.9
20260902021005 78 0 0.0 0.0 0.00 0.00 0.00 80 1014.9
20260902015504 79 0 0.0 0.0 0.00 0.00 0.00 79 1014.8
20260902015004 79 0 0.0 0.0 0.00 0.00 0.00 78 1014.8
20260902014504 80 0 0.0 0.0 0.00 0.00 0.00 77 1014.8
20260902014005 80 0 0.0 0.0 0.00 0.00 0.00 77 1014.7
20260902012004 80 0 0.0 0.0 0.00 0.00 0.00 75 1014.6
20260902011005 81 0 0.0 0.0 0.00 0.00 0.00 73 1014.5
20260902010503 81 0 0.0 0.0 0.00 0.00 0.00 73 1014.4
20260902005503 82 0 0.0 0.0 0.00 0.00 0.00 71 1014.4
20260902005004 82 0 0.0 0.0 0.00 0.00 0.00 71 1014.4
20260902004504 82 0 0.0 0.0 0.00 0.00 0.00 71 1014.3
20260902004004 82 0 0.0 0.0 0.00 0.00 0.00 70 1014.3
20260902003503 82 0 0.0 0.0 0.00 0.00 0.00 70 1014.2
20260902003005 82 0 0.0 0.0 0.00 0.00 0.00 70 1014.1
20260902002504 83 0 0.0 0.0 0.00 0.00 0.00 69 1014.1
20260902002005 83 0 0.0 0.0 0.00 0.00 0.00 69 1014.0
20260902001503 83 0 0.0 0.0 0.00 0.00 0.00 69 1014.0
20260902001005 83 0 0.0 0.0 0.00 0.00 0.00 69 1014.0
20260902000503 83 241 0.0 1.0 0.00 0.00 0.00 69 1014.3
20260902000005 83 243 1.0 3.0 0.00 0.00 0.00 69 1014.4
20260901235005 84 252 0.0 3.0 0.00 0.00 0.00 69 1014.5
20260901234504 84 256 1.0 3.0 0.00 0.00 0.00 68 1014.3
20260901234004 84 257 2.0 4.0 0.00 0.00 0.00 68 1014.4
20260901233504 84 251 2.0 5.0 0.00 0.00 0.00 68 1014.4
20260901233005 84 256 2.0 5.0 0.00 0.00 0.00 68 1014.6
20260901232504 84 271 1.0 3.0 0.00 0.00 0.00 67 1014.7
20260901232005 85 200 1.0 3.0 0.00 0.00 0.00 67 1014.6
20260901231504 85 195 1.0 3.0 0.00 0.00 0.00 67 1014.8
20260901230504 85 277 1.0 4.0 0.00 0.00 0.00 66 1014.9
20260901230005 85 253 2.0 4.0 0.00 0.00 0.00 65 1014.9
20260901225504 85 235 2.0 7.0 0.00 0.00 0.00 65 1014.9
20260901225005 85 237 1.0 7.0 0.00 0.00 0.00 64 1014.8
20260901224005 85 243 2.0 5.0 0.00 0.00 0.00 64 1015.0
20260901223504 85 259 3.0 8.0 0.00 0.00 0.00 64 1015.0
20260901223005 86 266 3.0 8.0 0.00 0.00 0.00 63 1015.1
20260901222504 86 242 3.0 8.0 0.00 0.00 0.00 63 1015.1
20260901222005 86 236 4.0 8.0 0.00 0.00 0.00 63 1015.1
20260901221504 86 236 3.0 8.0 0.00 0.00 0.00 64 1015.0
20260901220503 86 239 3.0 8.0 0.00 0.00 0.00 65 1015.0
20260901220005 86 242 3.0 7.0 0.00 0.00 0.00 66 1015.0
20260901215504 86 239 2.0 7.0 0.00 0.00 0.00 66 1015.0
20260901215005 86 247 2.0 8.0 0.00 0.00 0.00 67 1014.9
20260901214503 86 243 2.0 8.0 0.00 0.00 0.00 67 1014.9
20260901214006 86 224 3.0 7.0 0.00 0.00 0.00 67 1014.9
20260901213505 86 231 3.0 11.0 0.00 0.00 0.00 67 1014.9
20260901213100 86 241 3.0 11.0 0.00 0.00 0.00 67 1014.9
20260901212004 86 241 5.0 10.0 0.00 0.00 0.00 67 1014.9
20260901211504 86 238 4.0 11.0 0.00 0.00 0.00 67 1015.0
20260901211005 87 228 2.0 11.0 0.00 0.00 0.00 68 1014.9
20260901210504 87 261 2.0 9.0 0.00 0.00 0.00 67 1015.0
20260901210005 87 251 3.0 9.0 0.00 0.00 0.00 68 1015.0
20260901205504 87 230 3.0 8.0 0.00 0.00 0.00 67 1015.0
20260901204504 87 238 3.0 12.0 0.00 0.00 0.00 67 1015.0
20260901204005 87 244 2.0 7.0 0.00 0.00 0.00 68 1014.9
20260901203005 87 232 2.0 7.0 0.00 0.00 0.00 68 1015.1
20260901202504 87 245 3.0 10.0 0.00 0.00 0.00 68 1015.2
20260901202004 87 253 3.0 10.0 0.00 0.00 0.00 67 1015.2
20260901201504 87 243 2.0 7.0 0.00 0.00 0.00 67 1015.2
20260901201005 87 249 3.0 9.0 0.00 0.00 0.00 67 1015.1
20260901200504 87 234 3.0 9.0 0.00 0.00 0.00 66 1015.1
20260901200005 88 223 3.0 9.0 0.00 0.00 0.00 65 1015.1
20260901195503 88 226 4.0 9.0 0.00 0.00 0.00 64 1015.0
20260901195004 88 221 4.0 9.0 0.00 0.00 0.00 64 1015.1
20260901194504 89 221 3.0 9.0 0.00 0.00 0.00 63 1014.9
20260901194005 89 226 3.0 7.0 0.00 0.00 0.00 63 1014.9
20260901193504 89 235 3.0 9.0 0.00 0.00 0.00 61 1014.9
20260901193005 90 248 3.0 9.0 0.00 0.00 0.00 60 1014.8
20260901192504 90 247 4.0 10.0 0.00 0.00 0.00 60 1014.8
20260901192005 90 233 3.0 10.0 0.00 0.00 0.00 60 1014.8
20260901191504 90 212 3.0 9.0 0.00 0.00 0.00 59 1014.7
20260901191004 91 213 2.0 7.0 0.00 0.00 0.00 58 1014.7
20260901190503 91 232 2.0 9.0 0.00 0.00 0.00 57 1014.7
20260901185504 92 227 3.0 8.0 0.00 0.00 0.00 57 1014.6
20260901185005 92 224 3.0 8.0 0.00 0.00 0.00 56 1014.7
20260901184504 92 220 3.0 6.0 0.00 0.00 0.00 57 1014.7
20260901184005 92 241 3.0 7.0 0.00 0.00 0.00 57 1014.8
20260901183504 92 248 4.0 10.0 0.00 0.00 0.00 57 1014.9
20260901183004 91 239 3.0 10.0 0.00 0.00 0.00 57 1014.9
20260901182504 91 226 3.0 8.0 0.00 0.00 0.00 61 1014.9
20260901182005 91 235 3.0 8.0 0.00 0.00 0.00 58 1014.9
20260901181504 90 246 3.0 7.0 0.00 0.00 0.00 60 1015.0
20260901181004 90 249 3.0 10.0 0.00 0.00 0.00 61 1015.0
20260901180504 90 252 4.0 10.0 0.00 0.00 0.00 60 1015.1
20260901180005 90 230 3.0 9.0 0.00 0.00 0.00 59 1015.2
20260901175504 91 229 3.0 6.0 0.00 0.00 0.00 59 1015.2
20260901175005 91 225 2.0 6.0 0.00 0.00 0.00 59 1015.1
20260901174504 91 213 2.0 9.0 0.00 0.00 0.00 59 1015.1
20260901174007 92 237 3.0 12.0 0.00 0.00 0.00 57 1015.2
20260901173504 92 245 3.0 12.0 0.00 0.00 0.00 57 1015.3
20260901173004 93 256 2.0 9.0 0.00 0.00 0.00 56 1015.4
20260901172504 93 250 3.0 9.0 0.00 0.00 0.00 57 1015.4
20260901172004 93 231 4.0 9.0 0.00 0.00 0.00 55 1015.4
20260901171504 93 238 4.0 9.0 0.00 0.00 0.00 54 1015.4
20260901171004 94 248 4.0 10.0 0.00 0.00 0.00 54 1015.5
20260901170505 94 236 4.0 11.0 0.00 0.00 0.00 54 1015.6
20260901170004 94 250 3.0 11.0 0.00 0.00 0.00 55 1015.5
20260901165503 94 292 3.0 15.0 0.00 0.00 0.00 55 1015.6
20260901164503 94 248 4.0 12.0 0.00 0.00 0.00 56 1015.6
20260901164004 94 240 3.0 12.0 0.00 0.00 0.00 53 1015.7
20260901163504 93 276 3.0 8.0 0.00 0.00 0.00 54 1015.7
20260901163005 93 283 3.0 8.0 0.00 0.00 0.00 55 1015.6
20260901162504 92 260 2.0 8.0 0.00 0.00 0.00 57 1015.6
20260901162004 92 260 3.0 8.0 0.00 0.00 0.00 57 1015.6
20260901161504 91 272 3.0 9.0 0.00 0.00 0.00 58 1015.6